Location: Newark
(5.0949°S, 42.8042°W)
Time: 21:42:34
(UTC+00:00)

N. Korean satellite - Visible Passes

Search period start: 18 September 2019 00:00
Search period end: 28 September 2019 00:00
Orbit: 455 x 509 km, 97.2° (Epoch: 17 September)

Date Brightness Start Highest point End Pass type
(mag) Time Alt. Az. Time Alt. Az. Time Alt. Az.
18 Sep 9.8 07:39:58 10° ENE 07:41:56 14° ESE 07:43:55 10° SE visible
20 Sep 6.6 08:21:16 10° NNE 08:24:42 83° E 08:28:14 10° S visible
21 Sep 8.8 07:56:33 10° NE 07:59:34 28° ESE 08:02:39 10° SSE visible
21 Sep 10.0 21:15:33 10° SW 21:17:44 15° WSW 21:19:55 10° WNW visible
22 Sep 10.1 07:33:21 10° E 07:34:28 11° ESE 07:35:34 10° ESE visible
24 Sep 7.2 08:13:47 10° NNE 08:17:13 60° E 08:20:44 10° S visible
25 Sep 9.4 07:49:19 10° NE 07:52:05 22° ESE 07:54:54 10° SSE visible
25 Sep 9.8 21:07:36 10° SSW 21:10:16 19° WSW 21:12:55 10° NW visible
